Tracking 20083 objects as of 12-Dec-2019
HD Live streaming from Space Station
objects crossing your sky now

COSMOS 2251 DEB

Track COSMOS 2251 DEB now!
10-day predictions


NORAD ID: 34271
Int'l Code: 1993-036LR
Perigee: 736.9 km
Apogee: 797.5 km
Inclination: 74.0 °
Period: 100.0 minutes
Semi major axis: 7138 km
RCS: 0.0086 m2 (small)
Launch date: June 16, 1993
Source: Commonwealth of Independent States (former USSR) (CIS)
Launch site: PLESETSK MISSILE AND SPACE COMPLEX (PKMTR)

Note: This is SATELLITE DEBRIS
aabbcc
Your satellite tracking list
Your tracking list is empty




NASA's NSSDC Master Catalog

Two Line Element Set (TLE):
1 34271U 93036LR  19346.09436391  .00000454  00000-0  15259-3 0  9994
2 34271  74.0343 341.4144 0042419 221.8042 202.8252 14.39523690565177
Source of the keplerian elements: AFSPC